Location: Eitze
(52.9840°N, 9.6894°E)
Time: 20:19:06
(UTC+00:00)

Cosmos 1933 - Pass Details

Date: 19 May 2025
Orbit: 516 x 523 km, 82.5° (Epoch: 20 June)

Event Time Altitude Azimuth Distance (km) Brightness Sun altitude
Rises 19:58:59 0° 184° (S) 2,643 6.4 -5.4°
Reaches altitude 10° 20:01:07 10° 183° (S) 1,759 5.5 -5.6°
Maximum altitude 20:04:57 73° 99° (E) 552 3.2 -6.0°
Drops below altitude 10° 20:08:50 10° 14° (NNE) 1,769 6.4 -6.4°
Sets 20:10:59 0° 13° (NNE) 2,661 7.3 -6.6°
